This is the latest recevied weather packets stored in our database for station/object K1FFK-1. If no packets are shown the sender has not sent any weather packets the latest 10 day(s).
| Time | Temp. | Humidity | Pressure | Rain* | Wind** | Luminosity | Snow |
|---|---|---|---|---|---|---|---|
| 1777698094 | 1.11° C | 99% | 1013.4 hPa | 0 mm | - | - | - |
| 1777697493 | 1.67° C | 98% | 1013.5 hPa | 0 mm | - | - | - |
| 1777696893 | 1.67° C | 97% | 1013.6 hPa | 0 mm | - | - | - |
| 1777696296 | 1.67° C | 95% | 1013.5 hPa | 0 mm | - | - | - |
| 1777695694 | 1.67° C | 94% | 1013.6 hPa | 0 mm | - | - | - |
| 1777695094 | 2.22° C | 91% | 1013.6 hPa | 0 mm | - | - | - |
| 1777694494 | 2.78° C | 88% | 1013.7 hPa | 0 mm | - | - | - |
| 1777693894 | 2.78° C | 84% | 1013.8 hPa | 0 mm | - | - | - |
| 1777693294 | 2.78° C | 82% | 1013.7 hPa | 0 mm | - | - | - |
| 1777692693 | 3.33° C | 79% | 1013.4 hPa | 0 mm | - | - | - |
| 1777692094 | 3.33° C | 75% | 1013.5 hPa | 0 mm | - | - | - |
| 1777691494 | 3.33° C | 74% | 1013.5 hPa | 0 mm | - | - | - |
| 1777690893 | 3.33° C | 73% | 1013.5 hPa | 0 mm | - | - | - |
| 1777690294 | 3.33° C | 73% | 1013.5 hPa | 0 mm | - | - | - |
| 1777689695 | 3.33° C | 73% | 1013.5 hPa | 0 mm | - | - | - |
| 1777689094 | 3.33° C | 72% | 1013.5 hPa | 0 mm | - | - | - |
| 1777688494 | 3.33° C | 73% | 1013.6 hPa | 0 mm | - | - | - |
| 1777687894 | 3.33° C | 72% | 1013.6 hPa | 0 mm | - | - | - |
| 1777687294 | 3.33° C | 72% | 1013.7 hPa | 0 mm | - | - | - |
| 1777686693 | 3.33° C | 71% | 1013.7 hPa | 0 mm | - | - | - |
| 1777686094 | 3.89° C | 69% | 1013.6 hPa | 0 mm | - | - | - |
| 1777685493 | 3.89° C | 68% | 1013.6 hPa | 0 mm | - | - | - |
| 1777684894 | 3.89° C | 67% | 1013.6 hPa | 0 mm | - | - | - |
| 1777684294 | 3.89° C | 67% | 1013.5 hPa | 0 mm | - | - | - |
| 1777683693 | 3.89° C | 66% | 1013.5 hPa | 0 mm | - | - | - |
* Rain latest hour (hover to see other rain measurements)
** Current wind speed in m/s (hover to see current wind gust speed)